Weather History for Calvi, France

Change the Weather History Date:

Thursday, June 21, 2012

  Actual Average Record
Temperature  
Mean Temperature 80 °F -  
Max Temperature 93 °F 81 °F 93 °F (2012)
Min Temperature 68 °F 64 °F 57 °F (1999)
Cooling Degree Days 16    
Growing Degree Days 30 (Base 50)    
Moisture  
Dew Point 62 °F    
Average Humidity 52    
Maximum Humidity 88    
Minimum Humidity 28    
Precipitation  
Precipitation 0.00 in - - ()
Sea Level Pressure  
Sea Level Pressure 29.86 in    
Wind  
Wind Speed 6 mph ()    
Max Wind Speed 17 mph    
Max Gust Speed -    
Visibility 6.2 miles    
Events      
Averages and records for this station are not official NWS values.
T = Trace of Precipitation, MM = Missing Value Source: Averaged Metar Reports

Daily Weather History Graph

Daily Weather History Graph

Search for Another Location

Airport:

Trip Planner

Search our weather history database for the weather conditions in past years. The results will help you decide how hot, cold, wet, or windy it might be!

Date:

Astronomy

Jun. 21, 2012 Rise Set
Actual Time 5:47 AM CEST 9:05 PM CEST
Civil Twilight 5:12 AM CEST 9:40 PM CEST
Nautical Twilight 4:27 AM CEST 10:26 PM CEST
Astronomical Twilight 3:31 AM CEST 11:21 PM CEST
Moon 7:31 AM CEST 10:16 PM CEST
Length of Visible Light 16h 28m
Length of Day
15h 18m
Waxing Crescent, 3% of the Moon is Illuminated
Jun 21
Waxing Crescent
Jun 27
First Quarter
Jul 3
Full
Jul 11
Last Quarter
Jul 19
New

Hourly Weather History & Observations

Time (CEST) Temp. Heat Index Dew Point Humidity Pressure Visibility Wind Dir Wind Speed Gust Speed Precip Events Conditions
6:30 AM 69.8 °F - 66.2 °F 88% 29.83 in 6.2 mi SSW 4.6 mph - N/A   Scattered Clouds
7:00 AM 68.0 °F - 64.4 °F 88% 29.83 in 6.2 mi Variable 3.5 mph - N/A   Scattered Clouds
7:30 AM 69.8 °F - 66.2 °F 88% 29.83 in 6.2 mi SSE 1.2 mph - N/A   Scattered Clouds
8:00 AM 73.4 °F - 68.0 °F 83% 29.86 in 6.2 mi Calm Calm - N/A   Scattered Clouds
8:30 AM 75.2 °F - 68.0 °F 78% 29.86 in 6.2 mi Variable 2.3 mph - N/A   Scattered Clouds
9:00 AM 77.0 °F - 68.0 °F 74% 29.86 in 6.2 mi NNE 3.5 mph - N/A   Scattered Clouds
9:30 AM 78.8 °F - 68.0 °F 69% 29.86 in 6.2 mi Calm Calm - N/A   Partly Cloudy
10:00 AM 77.0 °F - 68.0 °F 74% 29.86 in 6.2 mi NNW 8.1 mph - N/A   Partly Cloudy
10:30 AM 78.8 °F - 68.0 °F 69% 29.86 in 6.2 mi North 9.2 mph - N/A   Partly Cloudy
11:00 AM 80.6 °F 83.2 °F 68.0 °F 65% 29.86 in 6.2 mi North 6.9 mph - N/A   Partly Cloudy
11:30 AM 82.4 °F 85.4 °F 68.0 °F 62% 29.86 in 6.2 mi NNE 5.8 mph - N/A   Partly Cloudy
12:00 PM 86.0 °F 89.4 °F 68.0 °F 55% 29.86 in 6.2 mi ENE 5.8 mph - N/A   Partly Cloudy
12:30 PM 89.6 °F 88.1 °F 57.2 °F 33% 29.86 in 6.2 mi SSW 10.4 mph - N/A   Partly Cloudy
1:00 PM 91.4 °F 89.4 °F 55.4 °F 29% 29.86 in 6.2 mi SSW 9.2 mph - N/A   Partly Cloudy
1:30 PM 91.4 °F 89.4 °F 55.4 °F 29% 29.86 in 6.2 mi SW 10.4 mph - N/A   Partly Cloudy
2:00 PM 91.4 °F 89.1 °F 53.6 °F 28% 29.86 in 6.2 mi SW 11.5 mph - N/A   Partly Cloudy
2:30 PM 93.2 °F 91.9 °F 57.2 °F 30% 29.86 in 6.2 mi SW 11.5 mph - N/A   Partly Cloudy
3:00 PM 93.2 °F 92.6 °F 59.0 °F 32% 29.86 in 6.2 mi SW 11.5 mph - N/A   Partly Cloudy
3:30 PM 93.2 °F 92.6 °F 59.0 °F 32% 29.86 in - SW 11.5 mph - N/A   Clear
4:00 PM 91.4 °F 92.1 °F 62.6 °F 38% 29.86 in - SSW 12.7 mph - N/A   Clear
4:30 PM 89.6 °F 90.1 °F 62.6 °F 40% 29.86 in - SSW 15.0 mph - N/A   Clear
5:00 PM 89.6 °F 88.1 °F 57.2 °F 33% 29.86 in 6.2 mi SW 12.7 mph - N/A   Partly Cloudy
5:30 PM 87.8 °F 86.1 °F 55.4 °F 33% 29.89 in 6.2 mi SW 17.3 mph - N/A   Partly Cloudy
6:00 PM 87.8 °F 86.1 °F 55.4 °F 33% 29.89 in 6.2 mi SW 11.5 mph - N/A   Partly Cloudy
6:30 PM 87.8 °F 86.1 °F 55.4 °F 33% 29.89 in 6.2 mi SW 11.5 mph - N/A   Partly Cloudy
7:00 PM 87.8 °F 86.5 °F 57.2 °F 35% 29.86 in 6.2 mi SW 10.4 mph - N/A   Partly Cloudy